Back to catalog

METEOR 2-7 DEB

AlivePO
NORAD 43300·DEBRIS·🇷🇺 Russia

Launched May 14, 1981 from Plesetsk Cosmodrome

Loading…

Next Passes (next 24 hours)

TLE

FreshSource: Space-Track

Epoch: Sep 14, 2026, 12:20 UTC

1 43300U 81043X   26257.51393535  .00002118  00000-0  73251-3 0  9995
2 43300  81.2534 325.8438 0039412 118.8625 241.6524 14.35033691568107

Track METEOR 2-7 DEB in real time with AllMySat

Download on the App Store